Wind_Speed
22 23 24 24 26 27 26 25 24 24 23 23 23 22 22 21 21 22 21 20 20 20 19 19 19 18 18 18 17 17 17 17 17 17 16 17 17 17 16 16 15 15 15 14 14 14 13 13 12
24 24 25 26 27 28 27 26 26 25 25 25 25 24 24 24 24 24 23 23 22 22 22 21 21 21 20 20 19 19 19 19 19 19 19 18 18 18 18 18 18 17 16 16 16 16 16 15 15
25 26 27 28 29 29 28 28 28 28 28 27 27 26 26 26 26 26 25 25 25 24 24 23 23 23 23 22 21 21 21 21 21 21 21 21 21 20 20 19 19 19 19 18 18 18 18 18 17
25 26 28 29 30 29 29 30 30 30 30 30 29 29 28 28 28 27 27 27 26 26 26 25 24 25 25 24 24 24 24 23 22 22 22 22 22 22 21 21 21 21 21 20 20 20 20 20 19
26 27 29 30 30 30 31 31 32 32 32 33 33 32 31 31 31 30 29 29 29 28 28 28 27 27 27 26 26 26 26 26 25 24 24 23 23 23 22 22 23 23 22 22 22 22 23 23 22
26 28 30 30 31 32 33 33 34 35 35 35 36 35 34 34 33 32 31 31 31 30 30 29 29 29 29 29 28 28 27 27 27 26 26 26 25 24 24 23 23 23 23 24 24 24 23 24 24
27 29 30 31 32 33 34 35 36 37 37 37 38 37 37 36 36 35 34 33 33 32 31 30 30 30 30 30 29 29 29 27 28 27 27 26 25 25 25 25 24 24 24 25 25 25 25 25 25
27 29 31 31 32 34 35 36 37 38 38 38 39 39 38 38 37 36 35 34 34 33 33 32 31 31 31 31 31 31 30 29 29 29 28 27 27 27 27 27 27 27 26 26 27 27 26 26 26
28 30 30 31 32 33 34 35 36 37 38 38 39 39 39 39 38 37 37 36 35 35 35 34 34 34 33 32 32 32 32 31 31 31 30 29 29 28 28 28 28 28 28 28 28 28 28 28 28
28 30 30 30 32 33 33 33 34 35 36 37 38 38 39 39 39 39 38 37 37 37 37 37 36 35 34 34 33 33 33 32 32 32 32 31 30 30 30 30 30 30 30 30 30 29 30 30 29
28 28 29 29 30 30 30 30 31 33 34 36 36 36 37 39 40 39 39 39 38 38 37 37 36 36 36 35 34 34 34 34 34 34 34 33 32 32 32 32 32 32 32 32 32 31 32 32 31
26 26 26 27 28 29 29 30 30 31 32 33 34 35 35 37 39 40 40 40 39 39 38 38 37 36 36 36 35 35 35 35 35 35 35 35 35 34 34 34 34 34 33 33 33 33 33 33 33
24 23 24 25 26 28 29 29 29 29 31 31 32 34 35 36 37 39 40 40 40 40 39 39 38 37 36 36 35 35 36 36 37 37 37 38 37 37 37 37 36 36 35 35 35 35 34 34 34
22 22 22 23 25 26 27 27 27 27 29 30 30 33 34 35 36 37 38 39 40 41 40 39 39 38 37 36 36 36 37 37 38 37 38 38 39 38 38 38 37 37 36 35 36 37 36 36 36
21 21 22 23 24 25 26 26 26 26 27 28 28 30 32 32 33 35 36 38 39 40 41 40 39 39 39 37 37 36 37 38 38 38 38 38 39 39 39 38 38 37 37 37 37 37 37 37 37
21 22 23 23 24 25 26 26 26 26 27 27 26 28 30 30 31 32 34 36 38 39 40 40 40 39 40 39 38 38 37 38 38 38 38 38 38 39 39 39 39 38 38 38 37 37 37 37 37
21 22 23 24 24 26 27 26 26 26 26 25 25 27 28 30 31 31 32 33 35 36 37 38 40 39 39 39 39 39 39 38 39 40 39 38 38 39 40 40 39 39 38 38 37 37 37 37 37
21 22 23 24 25 25 26 26 25 25 25 24 25 27 28 28 29 30 30 32 33 34 35 36 38 39 39 39 39 39 40 40 40 41 40 39 38 39 40 40 39 39 39 38 38 37 37 37 38
22 22 23 24 25 25 25 24 23 24 25 24 25 26 27 27 28 30 31 31 33 34 35 35 36 38 39 40 40 40 40 40 40 41 40 40 39 39 40 40 39 39 39 39 38 38 38 37 37
22 23 23 23 24 25 25 23 23 23 23 23 23 24 25 26 27 29 30 31 32 33 35 36 37 38 38 38 38 40 40 39 39 40 41 40 40 39 39 39 39 39 39 39 39 38 38 38 38
22 22 22 23 24 25 25 23 21 23 23 23 24 25 25 25 26 28 30 31 31 31 33 34 36 37 38 39 39 40 39 39 40 39 40 41 40 39 39 39 39 39 39 39 39 38 38 39 39
21 21 22 22 23 23 23 23 20 21 22 23 23 24 24 24 25 27 28 29 30 30 32 33 34 34 35 36 37 38 37 38 39 39 38 39 40 40 39 38 39 39 39 39 39 39 39 39 39
21 21 20 20 20 21 21 21 18 20 20 21 23 23 23 23 24 25 27 28 29 30 32 32 33 33 33 34 35 34 35 36 37 38 37 37 37 38 38 38 39 39 39 38 38 38 39 39 38
20 20 19 19 19 19 19 20 19 19 19 20 21 21 22 22 23 24 25 27 28 29 30 31 31 32 33 33 34 33 34 34 34 35 35 36 35 35 36 36 37 37 37 37 37 37 38 37 37
19 19 18 19 19 19 19 20 18 18 19 20 21 21 21 21 22 23 24 25 26 28 28 29 31 31 31 32 33 32 32 33 34 34 35 35 34 34 34 34 35 36 36 37 37 38 38 37 36
19 18 18 19 20 20 19 19 18 18 19 21 22 22 21 22 22 23 24 25 25 26 27 28 29 30 31 32 32 32 32 33 33 34 35 35 34 34 33 33 35 37 37 37 37 37 36 36 36
18 18 18 20 20 20 20 19 18 18 20 21 22 22 22 21 22 22 24 24 25 26 27 28 28 29 29 30 30 31 31 32 33 33 34 35 35 34 34 34 35 36 37 37 37 37 36 35 35
18 18 18 19 20 21 20 19 18 18 20 21 22 22 22 20 20 21 22 22 23 24 25 26 27 28 29 30 30 29 30 31 32 33 34 34 34 34 35 34 35 36 37 37 37 38 37 36 35
17 18 18 19 20 20 21 19 19 19 20 22 21 21 20 20 20 21 21 22 23 23 25 26 27 28 29 29 29 28 29 30 31 32 32 33 33 34 33 34 34 35 36 36 35 36 36 35 35
18 18 18 19 19 20 21 20 19 20 20 20 21 21 21 21 21 21 22 22 23 23 24 25 26 27 28 28 28 28 27 28 30 31 31 32 33 33 33 33 33 34 35 35 35 34 35 35 35
Wind_Direction
251 251 251 251 251 252 254 255 256 257 256 256 256 255 254 253 253 254 254 254 255 256 256 254 253 252 250 250 250 251 252 250 248 247 247 248 248 250 250 248 249 251 253 255 257 259 260 262 264
252 252 253 253 254 255 256 257 258 257 257 256 256 255 255 254 254 254 254 254 255 256 256 256 254 252 251 251 253 253 252 251 249 249 249 250 250 251 251 250 251 253 254 256 258 259 261 263 265
253 254 255 256 257 259 260 259 259 258 257 257 257 257 256 255 255 255 255 254 254 255 256 255 255 253 253 253 253 253 253 252 251 250 250 250 252 253 252 251 252 253 255 257 258 260 261 263 265
257 257 257 258 260 261 261 260 260 260 259 259 259 258 257 256 255 255 255 255 254 254 255 254 254 254 253 253 252 253 254 254 253 251 250 251 253 253 252 252 253 254 256 258 259 260 262 262 266
259 259 260 261 262 261 261 260 261 261 260 259 258 258 257 256 255 255 255 255 254 253 253 253 253 255 255 254 253 254 254 254 253 253 252 252 253 253 252 253 254 256 257 259 261 263 264 263 265
262 262 263 264 264 264 263 263 263 263 262 260 258 257 256 256 255 255 255 254 254 252 252 252 252 254 254 254 253 253 253 253 254 253 253 254 255 254 252 252 254 257 259 261 263 265 266 265 266
265 266 266 266 265 265 265 265 264 264 262 260 258 256 255 255 254 254 253 252 252 251 251 250 251 252 253 253 252 252 251 252 253 252 251 252 253 253 253 254 255 257 260 262 264 266 267 267 267
267 268 269 268 267 267 267 267 265 263 262 260 257 255 253 253 252 252 252 250 250 250 250 250 250 252 251 251 252 252 251 252 252 252 252 253 254 253 254 255 257 257 259 261 263 265 267 267 267
269 270 271 270 269 270 269 268 266 264 262 260 257 254 252 251 250 250 250 250 249 249 249 249 251 251 252 252 252 252 252 252 252 253 254 254 255 254 254 257 259 259 260 261 262 265 266 267 267
271 272 273 272 271 271 270 270 268 265 262 260 257 254 252 250 249 249 249 249 249 248 249 249 250 250 252 253 253 252 252 252 252 253 254 254 256 256 256 258 259 261 262 262 262 264 264 265 266
275 275 274 272 272 272 272 272 271 267 264 261 258 255 252 251 249 248 248 248 248 248 249 250 251 252 253 254 254 253 252 253 253 253 254 255 256 257 257 258 259 261 262 263 263 263 263 263 265
277 276 275 275 273 272 273 273 271 269 266 263 259 255 253 252 250 248 248 248 247 246 247 249 250 251 252 252 253 253 253 253 254 255 256 256 256 257 258 259 261 262 263 263 263 263 263 264 264
277 279 278 277 275 274 274 274 272 270 266 263 260 256 256 253 250 248 247 247 246 246 246 247 249 250 250 251 251 252 253 254 255 255 256 257 257 258 259 261 262 263 263 263 263 262 263 263 264
276 279 280 279 278 275 275 275 273 271 267 264 262 259 258 254 251 249 248 247 246 246 245 245 247 249 250 250 250 251 252 253 255 256 257 257 258 259 260 261 262 262 263 263 262 262 262 263 263
277 278 280 280 278 276 276 275 275 273 268 265 264 262 259 255 252 250 249 247 245 245 246 245 246 248 250 250 251 251 252 253 254 255 257 258 258 259 260 261 261 264 265 265 263 263 263 264 263
280 279 278 279 281 279 279 280 277 273 268 266 264 262 259 255 253 251 250 247 246 247 246 247 247 250 250 250 251 252 253 253 253 255 256 258 258 258 259 262 263 264 265 265 264 263 263 263 262
282 282 280 282 284 282 281 282 279 273 268 266 266 263 259 256 253 251 251 249 246 247 247 247 248 250 251 250 251 253 253 254 254 255 258 259 259 258 260 262 263 263 263 264 264 263 263 263 262
285 285 284 283 284 284 283 282 278 272 269 267 265 263 259 257 253 251 251 249 247 247 247 247 248 249 250 250 251 253 254 254 255 257 259 260 260 260 260 261 261 262 262 263 263 263 262 262 262
287 288 287 285 285 286 285 282 276 273 270 268 266 262 259 257 253 252 253 251 249 248 248 248 250 251 250 251 252 252 255 255 256 258 259 259 259 259 259 260 260 261 261 261 262 262 262 261 262
289 289 286 285 285 285 286 283 275 271 270 268 266 262 261 262 259 254 255 254 253 251 250 250 252 253 252 253 254 255 256 257 258 260 258 259 260 259 259 260 259 261 262 261 261 263 262 263 262
291 289 287 286 286 285 286 283 277 270 270 270 268 266 266 266 263 257 257 256 255 255 255 254 254 254 253 253 255 256 257 259 260 260 260 260 259 258 258 259 258 259 261 261 261 262 262 263 264
294 294 291 290 289 288 287 286 280 276 274 274 271 269 268 268 267 261 259 258 257 258 258 257 255 254 254 255 258 259 260 261 261 260 260 261 259 259 259 258 257 258 260 260 260 261 262 263 265
295 297 293 292 292 292 290 288 286 281 278 276 274 272 270 271 271 264 261 261 260 260 259 257 255 255 255 258 261 262 263 263 261 260 260 260 260 259 258 257 256 257 258 259 258 260 263 264 265
297 297 293 293 292 293 291 288 287 283 283 281 276 273 273 273 273 269 266 265 262 262 262 258 256 255 255 258 262 263 263 262 261 260 260 260 261 260 259 256 256 256 258 258 258 260 263 264 264
297 298 295 295 294 294 293 290 288 285 286 285 282 278 277 277 274 269 266 267 266 264 263 259 256 255 257 260 262 263 261 261 261 262 262 261 260 258 257 257 257 257 257 258 259 261 262 261 262
296 297 294 294 295 295 294 292 291 287 289 286 284 282 282 279 275 269 267 269 268 267 264 260 256 257 260 262 262 261 260 260 262 263 263 261 258 257 258 259 259 258 256 258 260 262 262 260 260
295 295 294 293 292 296 297 293 291 290 287 286 283 281 282 278 273 271 272 271 269 268 265 260 258 260 262 264 263 260 261 262 263 263 262 261 259 257 258 260 258 257 257 259 259 260 260 259 260
294 293 295 297 294 296 297 297 296 291 289 288 285 282 281 277 275 272 273 273 271 269 265 262 265 263 263 263 262 262 265 264 263 263 261 261 258 258 261 260 259 258 257 259 261 260 259 258 259
292 290 291 294 296 297 297 298 298 295 292 290 287 283 284 281 280 277 274 272 273 271 269 267 268 267 266 264 264 266 266 265 263 262 258 258 258 259 259 259 258 256 256 258 259 258 258 258 258
287 288 290 293 296 296 296 299 297 293 291 291 289 286 284 283 282 280 279 276 275 274 272 270 269 269 267 263 263 267 268 268 266 263 259 258 259 259 260 257 257 257 256 257 257 257 257 257 256
Height
5836 5837 5838 5839 5840 5840 5841 5844 5845 5846 5847 5848 5848 5849 5850 5851 5852 5854 5853 5853 5853 5853 5854 5854 5855 5855 5855 5856 5856 5857 5857 5858 5858 5858 5858 5859 5859 5859 5860 5860 5860 5861 5861 5861 5861 5861 5860 5860 5860
5831 5832 5833 5834 5834 5835 5837 5839 5840 5841 5841 5842 5843 5844 5844 5845 5846 5847 5847 5848 5849 5849 5850 5850 5851 5851 5852 5852 5852 5853 5853 5854 5854 5855 5855 5855 5856 5856 5856 5857 5857 5857 5858 5858 5858 5858 5858 5857 5857
5826 5827 5828 5828 5828 5830 5832 5833 5833 5834 5835 5836 5837 5838 5839 5840 5841 5842 5842 5843 5844 5844 5845 5845 5846 5847 5847 5848 5848 5848 5849 5850 5850 5851 5851 5851 5852 5852 5852 5853 5853 5854 5854 5854 5854 5854 5854 5854 5854
5821 5821 5822 5822 5822 5825 5825 5826 5826 5827 5828 5829 5830 5831 5832 5834 5835 5836 5836 5837 5838 5839 5839 5840 5841 5841 5842 5843 5843 5844 5844 5845 5846 5846 5846 5847 5847 5848 5848 5848 5849 5849 5850 5850 5850 5850 5850 5850 5850
5814 5814 5815 5815 5816 5818 5818 5818 5818 5819 5820 5821 5822 5823 5825 5826 5827 5828 5830 5830 5831 5832 5833 5834 5835 5836 5836 5837 5838 5838 5839 5840 5840 5841 5841 5842 5843 5843 5843 5844 5844 5845 5845 5845 5846 5846 5846 5846 5846
5808 5808 5808 5808 5809 5810 5810 5810 5810 5810 5811 5812 5813 5815 5816 5818 5819 5821 5822 5823 5824 5825 5826 5827 5828 5829 5830 5831 5832 5833 5833 5834 5835 5835 5836 5837 5837 5838 5838 5839 5839 5840 5840 5841 5841 5841 5841 5841 5841
5802 5801 5801 5801 5801 5801 5801 5800 5800 5801 5801 5802 5803 5805 5807 5808 5810 5812 5814 5815 5816 5818 5819 5820 5821 5822 5823 5824 5825 5826 5827 5828 5828 5829 5830 5831 5832 5832 5833 5833 5834 5835 5835 5835 5836 5836 5836 5836 5836
5794 5794 5792 5792 5792 5792 5791 5790 5790 5790 5790 5791 5792 5794 5797 5799 5801 5803 5805 5807 5808 5810 5811 5813 5814 5815 5816 5817 5818 5819 5820 5821 5822 5823 5823 5824 5825 5826 5827 5828 5828 5829 5829 5829 5830 5830 5830 5830 5830
5786 5786 5784 5784 5783 5782 5781 5780 5779 5779 5779 5779 5781 5783 5786 5788 5790 5793 5795 5798 5800 5801 5803 5805 5806 5807 5808 5809 5810 5811 5812 5813 5814 5815 5816 5818 5819 5819 5820 5821 5822 5822 5823 5823 5823 5824 5824 5824 5824
5778 5777 5777 5776 5774 5773 5771 5770 5769 5768 5768 5768 5769 5771 5774 5776 5779 5782 5785 5788 5790 5792 5794 5796 5797 5799 5800 5801 5802 5803 5804 5805 5807 5808 5809 5810 5811 5812 5813 5814 5815 5816 5816 5816 5817 5817 5817 5817 5817
5770 5769 5768 5766 5765 5763 5762 5761 5759 5758 5759 5758 5759 5761 5763 5765 5768 5771 5774 5777 5780 5782 5785 5786 5788 5790 5791 5792 5793 5795 5796 5798 5799 5800 5802 5803 5804 5805 5806 5807 5807 5808 5809 5809 5809 5809 5809 5810 5810
5762 5761 5759 5758 5756 5755 5754 5752 5751 5750 5750 5749 5749 5750 5752 5754 5757 5760 5763 5766 5769 5772 5775 5777 5779 5781 5782 5783 5785 5786 5788 5789 5791 5792 5793 5795 5796 5797 5798 5799 5799 5800 5801 5801 5801 5802 5802 5802 5803
5755 5754 5752 5750 5748 5747 5746 5744 5743 5742 5740 5739 5739 5740 5742 5744 5746 5748 5752 5755 5759 5762 5765 5767 5769 5771 5773 5775 5776 5777 5779 5781 5782 5783 5785 5786 5787 5788 5789 5790 5791 5791 5792 5793 5793 5793 5793 5794 5795
5748 5747 5745 5743 5741 5739 5738 5736 5735 5734 5732 5731 5731 5731 5732 5733 5735 5738 5741 5744 5748 5751 5754 5757 5760 5762 5764 5765 5767 5769 5770 5771 5772 5774 5775 5776 5778 5779 5780 5781 5782 5782 5783 5783 5783 5784 5785 5785 5786
5742 5741 5739 5737 5734 5732 5731 5730 5728 5726 5724 5722 5722 5722 5723 5724 5726 5728 5731 5734 5737 5740 5744 5747 5750 5752 5754 5756 5758 5760 5761 5762 5763 5765 5766 5767 5768 5769 5770 5771 5772 5773 5773 5773 5773 5774 5775 5776 5777
5736 5734 5733 5731 5728 5726 5726 5724 5722 5718 5716 5715 5715 5714 5715 5716 5718 5720 5722 5725 5727 5730 5733 5736 5740 5742 5744 5747 5749 5750 5752 5753 5754 5755 5756 5757 5758 5759 5760 5762 5762 5763 5763 5763 5763 5764 5764 5765 5767
5730 5728 5727 5725 5722 5720 5718 5717 5715 5711 5709 5709 5708 5708 5708 5709 5710 5712 5714 5716 5718 5721 5723 5726 5729 5732 5734 5737 5739 5740 5742 5743 5744 5745 5746 5747 5748 5749 5750 5752 5752 5753 5753 5753 5753 5754 5755 5756 5757
5724 5723 5721 5719 5716 5714 5711 5710 5708 5705 5704 5703 5702 5702 5701 5702 5704 5705 5707 5708 5710 5712 5715 5717 5720 5722 5725 5727 5729 5731 5733 5734 5734 5735 5736 5737 5738 5739 5740 5741 5742 5742 5743 5744 5744 5745 5745 5746 5747
5719 5717 5715 5713 5710 5708 5706 5704 5702 5700 5698 5697 5696 5696 5695 5696 5697 5698 5699 5701 5702 5704 5706 5708 5710 5712 5714 5717 5719 5721 5722 5724 5724 5725 5726 5727 5728 5729 5730 5731 5732 5733 5733 5734 5735 5735 5736 5737 5737
5712 5710 5709 5707 5704 5701 5700 5698 5697 5694 5692 5692 5691 5690 5690 5690 5691 5691 5692 5693 5694 5696 5698 5699 5701 5703 5705 5706 5708 5711 5712 5713 5714 5715 5716 5717 5717 5718 5719 5721 5722 5723 5723 5724 5725 5726 5726 5727 5727
5707 5705 5703 5701 5698 5695 5693 5693 5691 5689 5687 5686 5685 5683 5683 5683 5684 5684 5684 5685 5686 5687 5689 5690 5692 5693 5695 5696 5698 5700 5701 5703 5704 5705 5706 5706 5707 5708 5709 5710 5712 5713 5714 5715 5715 5716 5717 5718 5718
5701 5699 5697 5695 5692 5690 5688 5686 5686 5683 5682 5680 5678 5677 5677 5676 5677 5677 5677 5678 5679 5679 5680 5681 5682 5683 5685 5686 5687 5689 5690 5692 5693 5694 5695 5696 5697 5697 5698 5700 5701 5702 5704 5705 5706 5706 5707 5708 5708
5697 5694 5692 5690 5687 5685 5683 5681 5681 5678 5676 5675 5673 5672 5671 5670 5670 5670 5670 5671 5671 5671 5672 5672 5673 5674 5675 5677 5678 5679 5680 5681 5683 5683 5685 5685 5686 5687 5688 5689 5691 5692 5693 5695 5696 5697 5698 5698 5699
5691 5689 5687 5685 5682 5681 5679 5677 5676 5673 5672 5670 5668 5667 5666 5665 5664 5664 5664 5664 5664 5664 5664 5664 5665 5666 5667 5668 5669 5670 5671 5671 5673 5673 5674 5675 5675 5676 5677 5679 5681 5682 5684 5685 5686 5687 5688 5688 5689
5687 5685 5683 5680 5678 5676 5674 5672 5672 5669 5667 5664 5663 5662 5660 5659 5658 5658 5657 5657 5657 5657 5656 5656 5657 5658 5660 5660 5661 5661 5661 5662 5663 5664 5665 5665 5666 5667 5668 5670 5671 5673 5674 5675 5677 5678 5678 5679 5679
5682 5680 5678 5676 5673 5672 5670 5668 5668 5665 5662 5659 5657 5656 5655 5653 5652 5651 5650 5650 5650 5649 5649 5649 5650 5651 5652 5652 5652 5652 5653 5653 5654 5654 5655 5656 5657 5658 5660 5661 5662 5663 5665 5666 5667 5668 5668 5669 5670
5677 5675 5674 5671 5668 5667 5665 5664 5663 5660 5657 5654 5652 5651 5649 5648 5646 5645 5644 5643 5643 5642 5642 5642 5642 5643 5644 5644 5644 5645 5645 5645 5645 5645 5646 5647 5648 5649 5651 5652 5653 5654 5655 5656 5657 5658 5659 5660 5661
5673 5670 5669 5665 5662 5661 5660 5659 5658 5655 5652 5650 5647 5646 5644 5642 5641 5640 5639 5638 5637 5636 5635 5635 5635 5635 5636 5636 5636 5637 5637 5637 5637 5637 5638 5638 5639 5641 5642 5643 5644 5645 5646 5647 5648 5649 5649 5651 5652
5668 5666 5663 5661 5658 5656 5654 5656 5652 5649 5647 5644 5642 5641 5639 5637 5636 5634 5633 5632 5631 5630 5629 5628 5628 5628 5628 5629 5629 5629 5629 5628 5628 5629 5629 5630 5631 5632 5633 5634 5635 5636 5637 5638 5639 5640 5641 5642 5643
5662 5661 5659 5657 5654 5651 5649 5652 5647 5644 5641 5639 5637 5635 5634 5632 5630 5629 5627 5626 5625 5623 5622 5621 5621 5621 5620 5621 5621 5621 5621 5620 5620 5621 5621 5622 5623 5623 5624 5625 5626 5627 5629 5630 5631 5632 5633 5634 5635